User: anonymous   Login
Location: Unspecified
(0.0000°N, 0.0000°E)
Time: 20:58:17
(UTC+01:00)
Language:

Cosmos 1626 Rocket - Orbit

View from above orbital plane
View from above orbital plane
View from above satellite
View from above satellite

Ground track
Ground track

The orbit data is extracted from the following two-line orbital elements,

1 15495U 85009B   18049.86057125 +.00000084 +00000-0 +71937-5 0  9996
2 15495 082.5265 316.4125 0018844 233.9425 126.0046 14.83801204765456
Epoch (UTC): 18 February 2018 20:39:13
Eccentricity: 0.0018844
inclination: 82.5265°
perigee height: 604 km
apogee height: 630 km
right ascension of ascending node: 316.4125°
argument of perigee: 233.9425°
revolutions per day: 14.83801204
mean anomaly at epoch: 126.0046°
orbit number at epoch: 76545

The dashed part of the orbit path shows where the satellite is in the earth's shadow,  

DLR